• In Slovakia
  • List of Countries
  • For 7 days
  • Water Temperature
  • Satellite Maps
  • Weather Map
  • Weather Widgets
  • user-avatar
    Login

    Hourly Weather Wersele

    Today, 18 July, Wednesday

    Time Temperature Precipitation Wind Pressure Humidity
    00:00 +19°C° 0 mm 3 mps 731 mmHg 94%
    01:00 +19°C° 0 mm 3 mps 731 mmHg 95%
    02:00 +18°C° 0 mm 3 mps 731 mmHg 96%
    03:00 +18°C° 0 mm 3 mps 731 mmHg 96%
    04:00 +18°C° 0 mm 3 mps 731 mmHg 97%
    05:00 +18°C° 0 mm 3 mps 731 mmHg 97%
    06:00 +19°C° 0 mm 3 mps 732 mmHg 94%
    07:00 +20°C° 0 mm 3 mps 732 mmHg 91%
    08:00 +22°C° 0 mm 4 mps 732 mmHg 88%
    09:00 +23°C° 0.2 mm 4 mps 732 mmHg 83%
    10:00 +25°C° 0.2 mm 4 mps 732 mmHg 78%
    11:00 +27°C° 0.2 mm 5 mps 732 mmHg 72%
    12:00 +27°C° 0.2 mm 5 mps 732 mmHg 71%
    13:00 +27°C° 0.2 mm 5 mps 732 mmHg 69%
    14:00 +28°C° 0.2 mm 4 mps 732 mmHg 67%
    15:00 +28°C° 0.2 mm 4 mps 732 mmHg 68%
    16:00 +28°C° 0.2 mm 4 mps 732 mmHg 69%
    17:00 +27°C° 0.2 mm 4 mps 732 mmHg 70%
    18:00 +26°C° 0.1 mm 4 mps 732 mmHg 74%
    19:00 +25°C° 0.1 mm 3 mps 732 mmHg 78%
    20:00 +24°C° 0.1 mm 3 mps 732 mmHg 81%
    21:00 +21°C° 0 mm 3 mps 732 mmHg 84%
    22:00 +20°C° 0 mm 3 mps 732 mmHg 87%
    23:00 +19°C° 0 mm 2 mps 732 mmHg 90%

    Tomorrow, 19 July, Thursday

    Time Temperature Precipitation Wind Pressure Humidity
    00:00 +18°C° 0 mm 2 mps 733 mmHg 91%
    01:00 +18°C° 0 mm 2 mps 733 mmHg 92%
    02:00 +17°C° 0 mm 2 mps 733 mmHg 93%
    03:00 +17°C° 0 mm 2 mps 733 mmHg 93%
    04:00 +17°C° 0 mm 2 mps 733 mmHg 92%
    05:00 +17°C° 0 mm 2 mps 733 mmHg 92%
    06:00 +18°C° 0 mm 2 mps 733 mmHg 88%
    07:00 +20°C° 0 mm 3 mps 733 mmHg 83%
    08:00 +21°C° 0 mm 3 mps 734 mmHg 78%
    09:00 +24°C° 0.1 mm 3 mps 734 mmHg 73%
    10:00 +25°C° 0.1 mm 4 mps 734 mmHg 67%
    11:00 +26°C° 0.1 mm 5 mps 734 mmHg 62%
    12:00 +26°C° 0.3 mm 5 mps 734 mmHg 63%
    13:00 +27°C° 0.3 mm 5 mps 734 mmHg 63%
    14:00 +27°C° 0.3 mm 5 mps 734 mmHg 64%
    15:00 +26°C° 0.4 mm 5 mps 734 mmHg 67%
    16:00 +26°C° 0.4 mm 5 mps 734 mmHg 70%
    17:00 +26°C° 0.4 mm 4 mps 734 mmHg 74%
    18:00 +23°C° 0.5 mm 4 mps 734 mmHg 78%
    19:00 +22°C° 0.5 mm 4 mps 734 mmHg 83%
    20:00 +21°C° 0.5 mm 3 mps 734 mmHg 88%
    21:00 +20°C° 0 mm 3 mps 734 mmHg 90%
    22:00 +19°C° 0 mm 3 mps 734 mmHg 92%
    23:00 +18°C° 0 mm 3 mps 734 mmHg 93%

    Day after tomorrow, 20 July, Friday

    Time Temperature Precipitation Wind Pressure Humidity
    00:00 +18°C° 0 mm 3 mps 734 mmHg 94%
    01:00 +17°C° 0 mm 3 mps 734 mmHg 95%
    02:00 +17°C° 0 mm 3 mps 734 mmHg 96%
    03:00 +17°C° 0 mm 3 mps 734 mmHg 96%
    04:00 +17°C° 0 mm 3 mps 734 mmHg 96%
    05:00 +16°C° 0 mm 3 mps 733 mmHg 97%
    06:00 +18°C° 0 mm 3 mps 734 mmHg 93%
    07:00 +19°C° 0 mm 3 mps 734 mmHg 90%
    08:00 +20°C° 0 mm 4 mps 734 mmHg 87%
    09:00 +21°C° 0.1 mm 4 mps 734 mmHg 82%
    10:00 +23°C° 0.1 mm 4 mps 733 mmHg 78%
    11:00 +25°C° 0.1 mm 4 mps 733 mmHg 73%
    12:00 +26°C° 0.5 mm 4 mps 733 mmHg 73%
    13:00 +26°C° 0.5 mm 5 mps 733 mmHg 74%
    14:00 +26°C° 0.5 mm 5 mps 733 mmHg 74%
    15:00 +26°C° 0.4 mm 5 mps 733 mmHg 75%
    16:00 +26°C° 0.4 mm 6 mps 733 mmHg 75%
    17:00 +24°C° 0.4 mm 6 mps 733 mmHg 76%
    18:00 +23°C° 0.1 mm 5 mps 733 mmHg 79%
    19:00 +22°C° 0.1 mm 5 mps 733 mmHg 82%
    20:00 +21°C° 0.1 mm 4 mps 733 mmHg 85%
    21:00 +20°C° 0 mm 4 mps 732 mmHg 87%
    22:00 +19°C° 0 mm 4 mps 732 mmHg 89%
    23:00 +18°C° 0 mm 4 mps 732 mmHg 92%

    21 July, Saturday

    Time Temperature Precipitation Wind Pressure Humidity
    00:00 +17°C° 0 mm 4 mps 732 mmHg 93%
    01:00 +17°C° 0 mm 4 mps 732 mmHg 94%
    02:00 +15°C° 0 mm 4 mps 732 mmHg 96%
    03:00 +15°C° 0 mm 4 mps 732 mmHg 96%
    04:00 +16°C° 0 mm 3 mps 732 mmHg 96%
    05:00 +16°C° 0 mm 3 mps 732 mmHg 97%
    06:00 +17°C° 0 mm 4 mps 732 mmHg 93%
    07:00 +19°C° 0 mm 4 mps 732 mmHg 89%
    08:00 +20°C° 0 mm 4 mps 732 mmHg 85%
    09:00 +21°C° 0.1 mm 4 mps 732 mmHg 82%
    10:00 +22°C° 0.1 mm 4 mps 732 mmHg 79%
    11:00 +25°C° 0.1 mm 4 mps 732 mmHg 75%
    12:00 +25°C° 0.7 mm 5 mps 732 mmHg 75%
    13:00 +25°C° 0.7 mm 5 mps 732 mmHg 75%
    14:00 +26°C° 0.7 mm 5 mps 732 mmHg 75%
    15:00 +25°C° 0.6 mm 5 mps 732 mmHg 75%
    16:00 +25°C° 0.6 mm 5 mps 732 mmHg 76%
    17:00 +25°C° 0.6 mm 5 mps 732 mmHg 76%
    18:00 +22°C° 0.1 mm 5 mps 732 mmHg 79%
    19:00 +21°C° 0.1 mm 5 mps 732 mmHg 82%
    20:00 +20°C° 0.1 mm 4 mps 732 mmHg 85%
    21:00 +19°C° 0 mm 4 mps 732 mmHg 87%
    22:00 +18°C° 0 mm 4 mps 732 mmHg 89%
    23:00 +15°C° 0 mm 4 mps 732 mmHg 91%

    22 July, Sunday

    Time Temperature Precipitation Wind Pressure Humidity
    00:00 +15°C° 0 mm 4 mps 732 mmHg 92%
    01:00 +14°C° 0 mm 4 mps 732 mmHg 93%
    02:00 +14°C° 0 mm 3 mps 732 mmHg 94%
    03:00 +14°C° 0 mm 3 mps 732 mmHg 94%
    04:00 +13°C° 0 mm 3 mps 732 mmHg 93%
    05:00 +13°C° 0 mm 3 mps 732 mmHg 93%
    06:00 +16°C° 0 mm 3 mps 732 mmHg 89%
    07:00 +17°C° 0 mm 3 mps 733 mmHg 84%
    08:00 +19°C° 0 mm 3 mps 733 mmHg 79%
    09:00 +20°C° 0 mm 4 mps 733 mmHg 74%
    10:00 +22°C° 0 mm 4 mps 733 mmHg 69%
    11:00 +23°C° 0 mm 5 mps 733 mmHg 64%
    12:00 +23°C° 0 mm 5 mps 733 mmHg 63%
    13:00 +25°C° 0 mm 5 mps 733 mmHg 62%
    14:00 +24°C° 0 mm 6 mps 733 mmHg 61%
    15:00 +23°C° 0 mm 6 mps 733 mmHg 63%
    16:00 +23°C° 0 mm 6 mps 733 mmHg 65%
    17:00 +22°C° 0 mm 6 mps 733 mmHg 67%
    18:00 +20°C° 0 mm 5 mps 733 mmHg 71%
    19:00 +19°C° 0 mm 5 mps 734 mmHg 76%
    20:00 +18°C° 0 mm 4 mps 734 mmHg 81%
    21:00 +15°C° 0 mm 4 mps 734 mmHg 85%
    22:00 +14°C° 0 mm 3 mps 734 mmHg 89%
    23:00 +13°C° 0 mm 3 mps 734 mmHg 94%

    23 July, Monday

    Time Temperature Precipitation Wind Pressure Humidity
    00:00 +13°C° 0 mm 3 mps 734 mmHg 95%
    01:00 +13°C° 0 mm 3 mps 735 mmHg 96%
    02:00 +12°C° 0 mm 3 mps 735 mmHg 97%
    03:00 +12°C° 0 mm 3 mps 735 mmHg 97%
    04:00 +12°C° 0 mm 3 mps 735 mmHg 97%
    05:00 +12°C° 0 mm 3 mps 735 mmHg 97%
    06:00 +13°C° 0 mm 3 mps 735 mmHg 92%
    07:00 +15°C° 0 mm 4 mps 735 mmHg 87%
    08:00 +17°C° 0 mm 4 mps 735 mmHg 81%
    09:00 +18°C° 0.1 mm 4 mps 735 mmHg 78%
    10:00 +19°C° 0.1 mm 5 mps 735 mmHg 75%
    11:00 +20°C° 0.1 mm 5 mps 735 mmHg 71%
    12:00 +21°C° 0.2 mm 5 mps 735 mmHg 70%
    13:00 +21°C° 0.2 mm 5 mps 735 mmHg 68%
    14:00 +22°C° 0.2 mm 6 mps 736 mmHg 66%
    15:00 +22°C° 0.1 mm 5 mps 735 mmHg 67%
    16:00 +22°C° 0.1 mm 5 mps 735 mmHg 68%
    17:00 +21°C° 0.1 mm 5 mps 735 mmHg 68%
    18:00 +20°C° 0 mm 4 mps 736 mmHg 74%
    19:00 +19°C° 0 mm 3 mps 736 mmHg 79%
    20:00 +18°C° 0 mm 3 mps 736 mmHg 85%
    21:00 +16°C° 0 mm 2 mps 736 mmHg 88%
    22:00 +15°C° 0 mm 2 mps 736 mmHg 91%
    23:00 +14°C° 0 mm 2 mps 736 mmHg 95%
    Show more